Вернуться в каталог

GALAXY 9

АктивенСвязьGEO
NORAD 23877·PAYLOAD·🇺🇸 United States

Запущен May 24, 1996 с Cape Canaveral Space Force Station

Loading…

TLE

СвежийSource: Space-Track

Эпоха: Sep 14, 2026, 09:06 UTC

1 23877U 96033A   26257.37950515 -.00000114  00000-0  00000-0 0  9992
2 23877  12.2222  31.7143 0010512 175.6175  14.8116  0.99535952 47245

Отслеживайте GALAXY 9 в реальном времени с AllMySat

Download on the App Store